Back to catalog

SL-16 DEB

AliveLEO
NORAD 22579·DEBRIS·🇷🇺 Russia

Launched Mar 26, 1993 from Baikonur Cosmodrome

Loading…

Next Passes (next 24 hours)

TLE

FreshSource: Space-Track

Epoch: Sep 14, 2026, 13:02 UTC

1 22579U 93016G   26257.54365906  .00000152  00000-0  53878-4 0  9997
2 22579  71.0274 100.2611 0104651 285.7417  95.0420 14.47043853762330

Track SL-16 DEB in real time with AllMySat

Download on the App Store